Time[GMT],current_u[cm/s](10m),current_v[cm/s](10m),current_u[cm/s](14m),current_v[cm/s](14m),current_u[cm/s](18m),current_v[cm/s](18m),current_u[cm/s](22m),current_v[cm/s](22m),current_u[cm/s](26m),current_v[cm/s](26m),current_u[cm/s](30m),current_v[cm/s](30m),current_u[cm/s](34m),current_v[cm/s](34m),current_u[cm/s](38m),current_v[cm/s](38m),current_u[cm/s](42m),current_v[cm/s](42m),current_u[cm/s](46m),current_v[cm/s](46m),current_u[cm/s](50m),current_v[cm/s](50m),current_u[cm/s](54m),current_v[cm/s](54m),current_u[cm/s](58m),current_v[cm/s](58m),current_u[cm/s](62m),current_v[cm/s](62m),current_u[cm/s](66m),current_v[cm/s](66m),current_u[cm/s](70m),current_v[cm/s](70m),current_u[cm/s](74m),current_v[cm/s](74m),current_u[cm/s](78m),current_v[cm/s](78m),current_u[cm/s](82m),current_v[cm/s](82m),current_u[cm/s](86m),current_v[cm/s](86m),current_u[cm/s](90m),current_v[cm/s](90m),current_u[cm/s](94m),current_v[cm/s](94m),current_u[cm/s](98m),current_v[cm/s](98m)
2009-03-26 04:00,-8.51,-30.20,-2.59,-23.96,0.44,-17.56,0.56,-13.23,0.69,-6.59,-0.78,-0.87,-1.95,3.58,-1.78,7.40,-3.75,12.03,-4.73,13.50,-4.52,12.84,-4.74,11.51,-4.54,10.53,-3.60,11.24,-3.06,11.83,-1.51,12.93,-1.11,14.32,0.10,16.16,4.15,16.27,4.71,15.82,5.98,14.43,5.45,15.11,5.62,10.86
2009-03-26 05:00,-8.20,-38.58,-5.39,-31.11,-0.57,-23.74,2.49,-19.75,2.44,-12.54,2.24,-11.24,-0.13,-11.35,-2.25,-8.24,-3.46,-5.37,-3.06,-4.62,-3.84,-3.81,-3.89,-2.99,-2.87,-4.24,-3.94,-5.84,-4.53,-6.65,-3.73,-4.83,-1.51,-4.56,0.16,-3.20,1.67,-1.99,3.32,-0.22,4.50,0.35,5.58,-1.09,6.99,-6.31
2009-03-26 06:00,-4.48,-39.42,-4.26,-31.39,-3.25,-28.24,0.21,-25.91,3.13,-22.49,4.92,-19.83,4.57,-16.70,2.72,-14.45,0.70,-14.34,0.82,-14.72,1.12,-13.69,1.51,-14.61,1.51,-14.93,1.43,-14.01,4.15,-14.00,4.45,-13.28,4.71,-13.09,3.96,-12.38,3.32,-12.69,2.46,-12.95,1.79,-11.80,0.17,-12.31,-1.62,-8.57
2009-03-26 07:00,-14.21,-48.52,-8.04,-38.74,-7.32,-37.37,-4.14,-35.12,-3.63,-27.00,-3.92,-24.06,-4.11,-23.80,-4.89,-23.31,-4.31,-22.81,-3.50,-20.05,-2.15,-17.32,-3.26,-16.10,-3.61,-16.00,-1.52,-14.30,0.62,-12.06,2.56,-9.89,2.26,-8.93,1.68,-9.43,2.32,-9.12,1.87,-9.37,1.80,-9.49,2.15,-9.59,2.54,-8.84
2009-03-26 08:00,-13.74,-37.27,-8.30,-29.19,-1.55,-27.30,-0.71,-26.30,0.62,-22.85,1.27,-20.55,1.35,-19.79,1.88,-18.48,2.16,-15.35,3.28,-11.55,3.71,-10.57,2.85,-9.17,2.69,-4.92,2.03,-2.82,1.19,-0.78,0.45,0.24,0.28,-0.23,0.08,-0.92,-1.00,-2.51,-1.35,-4.09,-2.71,-4.41,-1.48,-4.34,-0.10,-2.02
2009-03-26 09:00,-16.44,-23.55,-13.30,-15.14,-5.09,-12.58,-1.15,-13.13,0.43,-10.13,0.42,-9.09,0.66,-8.17,2.40,-6.37,4.72,-3.03,6.10,1.27,5.99,3.96,5.03,5.02,4.30,8.04,2.38,10.17,0.79,12.60,0.04,13.00,-0.73,12.44,-2.40,13.08,-3.16,13.16,-3.15,11.80,-3.50,11.90,-4.95,13.54,-6.90,11.05
2009-03-26 10:00,-8.90,-5.39,-7.78,1.77,-6.03,2.21,-0.45,-1.92,3.29,-0.13,6.61,3.32,7.88,3.61,8.10,4.93,6.87,6.54,6.96,6.57,8.19,8.00,7.79,10.28,8.49,15.11,7.44,19.49,6.26,22.27,5.46,23.49,3.81,23.08,1.63,23.03,0.69,23.68,0.33,24.82,0.88,25.10,3.61,22.39,-0.65,16.55
2009-03-26 11:00,-9.30,11.35,-7.04,16.87,-6.05,15.71,-3.18,14.93,0.58,13.27,2.79,14.91,3.63,17.26,4.68,19.26,4.23,22.06,3.16,26.85,0.57,30.45,-1.09,32.76,-4.76,32.77,-4.04,33.83,-0.89,36.49,3.60,37.88,5.90,39.23,5.77,42.02,5.28,44.59,4.38,45.46,3.01,44.82,5.96,39.04,4.27,27.31
2009-03-26 12:00,-4.69,15.72,-3.66,22.85,-3.65,24.84,-4.27,24.12,-3.26,25.27,-2.65,25.99,-3.68,26.61,-3.00,28.81,-2.41,33.29,-3.64,37.93,-4.65,42.85,-4.26,44.97,-3.83,45.94,-3.15,46.78,-3.03,46.40,-1.90,46.12,-0.54,46.13,-0.72,45.02,-1.99,43.05,-4.76,40.52,-7.48,36.11,-5.04,37.71,-3.68,36.04
2009-03-26 13:00,-6.58,17.75,-13.85,25.64,-11.22,27.61,-7.13,28.26,-5.49,29.40,-4.95,29.35,-5.63,28.51,-5.82,28.77,-5.52,27.82,-5.13,28.25,-6.38,29.23,-7.41,31.52,-9.43,34.66,-12.55,37.25,-10.75,39.91,-7.78,40.10,-6.72,40.74,-7.46,41.77,-6.62,41.09,-7.19,39.55,-10.97,33.55,-9.36,35.42,-6.80,36.95
2009-03-26 14:00,7.22,3.40,0.59,10.55,-4.18,12.42,-7.30,17.73,-4.31,18.56,-1.31,18.66,-1.42,21.03,-3.73,22.40,-6.21,24.98,-7.75,27.23,-7.51,28.14,-6.55,28.44,-5.39,29.43,-3.98,29.24,-3.50,30.75,-2.69,31.84,-1.92,32.39,-2.16,28.13,-2.27,24.11,-0.12,27.30,1.12,26.01,1.18,24.46,1.07,22.12
2009-03-26 15:00,6.75,-8.89,6.50,-4.05,4.72,-1.36,1.21,0.17,-2.07,4.28,-8.58,9.37,-10.46,15.07,-9.13,18.21,-8.07,20.53,-6.55,22.05,-6.22,22.67,-7.62,22.45,-7.79,21.98,-6.84,21.96,-6.91,23.19,-6.28,22.87,-3.79,21.23,-2.05,19.68,-0.67,18.96,1.84,17.64,2.62,15.79,4.03,13.62,3.27,11.70
2009-03-26 16:00,-0.62,-23.55,0.89,-20.67,1.32,-19.38,4.28,-12.07,4.52,-8.12,2.02,-4.82,-1.68,-3.35,-3.52,2.88,-2.71,8.37,-2.14,11.59,-3.58,10.82,-3.77,10.77,-5.45,10.45,-6.77,9.31,-6.52,7.81,-6.37,7.34,-5.36,7.13,-2.77,6.89,-0.76,7.83,2.88,9.59,6.39,9.43,9.13,7.66,7.76,3.99
2009-03-26 17:00,-7.51,-35.75,-4.81,-27.26,-2.44,-21.08,-2.44,-16.37,-1.19,-12.31,-2.08,-9.45,-2.80,-7.16,-2.18,-6.12,-1.47,-3.70,-2.69,-0.10,-3.21,0.57,-2.95,-0.29,-1.90,-0.28,-2.37,-0.11,-3.66,0.64,-4.65,1.48,-4.23,0.46,-2.72,-1.69,-0.20,-2.05,1.16,-2.05,3.06,-2.08,4.14,-1.85,3.77,-3.02
2009-03-26 18:00,-6.33,-43.55,-6.49,-35.64,-7.85,-27.58,-7.53,-19.21,-7.48,-13.64,-5.32,-11.50,-4.94,-10.02,-3.86,-9.79,-3.52,-9.89,-2.39,-9.12,-2.44,-9.66,-2.11,-9.35,-1.70,-9.33,-2.02,-9.32,-0.95,-9.41,1.88,-10.41,2.12,-11.18,2.23,-11.87,1.57,-13.44,1.11,-15.99,1.74,-20.72,-0.31,-22.20,-0.65,-20.10
2009-03-26 19:00,0.04,-36.12,1.99,-28.92,2.65,-20.96,3.40,-16.64,3.78,-16.52,3.92,-17.63,4.28,-17.10,5.05,-17.91,6.34,-18.66,5.20,-18.38,4.57,-19.73,4.69,-20.11,5.63,-20.77,7.02,-20.86,5.04,-21.89,3.55,-21.83,3.38,-22.62,2.92,-23.49,3.12,-24.48,2.56,-25.70,2.41,-23.86,2.93,-18.15,4.46,-16.00
2009-03-26 20:00,9.28,-39.21,6.43,-36.12,2.95,-29.98,0.97,-27.66,0.35,-23.98,1.80,-19.55,2.49,-17.76,1.01,-17.70,0.13,-17.24,0.22,-17.84,0.26,-18.67,-0.57,-19.03,-0.57,-19.03,-1.57,-18.82,-3.12,-20.24,-1.14,-22.56,1.04,-22.51,0.65,-21.58,0.02,-19.58,-1.27,-16.11,-3.66,-14.13,-3.73,-10.90,-0.42,-6.73
2009-03-26 21:00,-5.59,-21.74,-7.19,-21.30,-6.64,-17.68,-5.46,-17.10,-5.24,-17.13,-3.84,-13.24,-3.94,-11.91,-2.98,-11.30,-1.88,-10.12,-2.08,-7.77,-2.62,-6.05,-3.28,-5.94,-2.01,-5.65,-0.42,-6.73,1.20,-7.90,1.71,-7.85,2.26,-7.26,3.12,-6.99,3.83,-4.57,3.02,2.41,0.95,6.37,-0.50,10.00,4.55,5.92
2009-03-26 22:00,-12.84,-0.13,-13.05,0.54,-9.24,3.09,-7.46,6.47,-4.42,11.51,-3.54,12.72,-2.05,11.62,-0.91,11.34,-0.50,11.68,0.68,11.94,2.07,11.85,3.01,11.52,3.57,10.75,3.43,10.50,4.01,9.00,3.68,10.36,3.06,15.72,2.90,18.60,1.13,20.57,1.01,23.67,-0.10,25.21,-0.37,26.07,-0.56,18.26
2009-03-26 23:00,-17.87,17.37,-19.62,16.93,-19.53,15.28,-16.93,17.04,-11.75,21.58,-7.49,25.74,-4.72,26.91,-2.72,27.22,-3.74,30.15,-4.71,30.58,-5.82,27.09,-6.53,26.35,-6.08,28.27,-6.22,31.06,-7.14,34.02,-7.42,35.60,-8.09,37.07,-7.86,39.34,-7.47,39.46,-6.63,39.10,-6.11,39.47,-4.96,38.78,-4.53,31.37
2009-03-27 00:00,-9.12,29.94,-8.03,33.53,-5.09,33.50,-3.61,33.12,-3.35,32.26,-1.66,31.22,-0.05,30.78,1.15,30.94,2.02,31.84,2.57,33.79,0.97,37.59,-1.57,39.00,-1.60,39.09,-1.86,40.27,-1.79,40.71,-1.90,39.73,-2.63,38.04,-3.64,36.57,-2.94,35.32,-1.17,35.04,2.43,34.90,3.16,33.56,2.00,29.22
2009-03-27 01:00,3.46,23.18,5.54,20.89,4.93,18.82,1.85,19.95,-1.21,20.36,-5.97,22.54,-8.21,26.35,-8.30,29.67,-9.66,36.06,-9.89,41.85,-9.50,44.28,-9.30,46.01,-9.36,46.52,-7.17,46.89,-4.93,46.75,-2.29,47.05,-0.11,47.10,0.79,46.23,1.89,46.05,0.78,43.92,2.04,43.89,3.09,44.22,2.97,42.92
2009-03-27 02:00,9.33,11.39,3.18,17.02,-3.98,21.18,-5.84,21.43,-5.06,22.62,-6.00,25.99,-12.27,30.64,-17.21,36.43,-18.03,40.05,-17.20,40.41,-14.95,38.92,-11.97,37.43,-9.30,36.91,-7.37,38.45,-6.58,39.64,-5.40,40.21,-4.45,40.19,-3.37,40.74,-2.31,41.38,-1.16,40.38,-0.33,39.38,0.10,38.36,0.31,36.34
2009-03-27 03:00,4.87,-8.23,2.36,-0.84,1.55,3.42,-1.10,6.89,-4.42,10.15,-9.57,13.57,-11.02,18.56,-9.86,22.90,-8.87,24.78,-8.17,25.21,-7.01,24.52,-4.72,23.56,-3.44,22.81,-1.89,22.56,-1.10,22.70,-2.14,22.69,-2.70,21.78,-2.58,20.04,-1.59,18.57,-0.51,18.80,1.68,19.17,1.53,17.97,2.71,15.51
2009-03-27 04:00,-0.65,-17.07,2.04,-11.93,3.55,-9.37,4.50,-7.71,3.05,-5.75,0.30,-0.95,-2.73,5.75,-3.46,8.77,-2.66,12.58,-1.32,14.99,-1.51,14.61,-1.43,15.68,-1.46,15.78,-0.93,15.11,-1.19,14.92,-0.74,13.80,-1.06,12.13,-1.46,10.75,-0.04,9.20,2.48,8.84,3.71,8.28,4.18,8.11,5.75,7.45
2009-03-27 05:00,-8.07,-28.91,-5.32,-16.22,-1.33,-14.24,1.41,-13.28,2.53,-11.15,2.54,-9.16,1.79,-5.41,1.39,-3.44,0.77,-1.12,-0.98,-0.20,-2.04,2.19,-2.52,3.72,-3.00,3.57,-2.60,2.96,-1.48,1.74,-1.78,-0.66,-2.01,-2.30,-1.74,-3.16,-0.39,-2.11,1.73,-2.19,3.25,-3.39,3.94,-3.91,5.60,-6.53
2009-03-27 06:00,-7.21,-38.38,-5.70,-27.44,-2.78,-18.99,0.02,-17.90,1.67,-18.12,2.85,-17.23,3.70,-16.24,4.19,-15.14,4.60,-15.43,4.97,-15.63,2.96,-13.22,2.55,-11.88,2.98,-12.58,4.08,-14.12,5.28,-14.59,5.60,-15.64,6.74,-15.60,6.19,-16.19,4.72,-17.17,4.28,-18.78,2.19,-20.48,0.80,-21.75,0.98,-19.28
2009-03-27 07:00,-5.22,-30.64,-2.98,-22.71,-4.61,-14.11,-6.13,-14.27,-5.43,-17.19,-4.30,-17.47,-3.89,-19.12,-4.71,-20.53,-7.50,-22.34,-7.48,-23.07,-6.29,-23.53,-5.22,-22.57,-2.09,-22.54,-1.04,-22.21,0.48,-23.42,0.35,-23.67,-0.25,-22.39,-1.58,-22.49,-3.87,-22.89,-5.24,-23.21,-6.48,-22.23,-4.49,-19.20,-1.66,-18.22
2009-03-27 08:00,-2.25,-30.76,-2.39,-26.30,2.38,-23.45,3.96,-21.81,2.37,-25.45,1.53,-28.12,1.36,-28.59,0.77,-29.71,0.95,-28.93,1.40,-26.69,1.43,-25.43,0.45,-25.31,0.71,-24.81,0.95,-25.26,1.02,-26.49,1.24,-26.85,0.05,-26.38,-0.54,-25.51,0.07,-23.75,0.80,-21.75,0.89,-20.36,2.36,-16.65,-1.16,-12.41
2009-03-27 09:00,-2.53,-23.83,1.66,-19.80,2.52,-14.82,3.28,-16.58,3.94,-18.04,3.25,-18.16,2.11,-18.20,0.52,-16.81,-0.40,-16.88,0.54,-17.53,2.60,-17.42,4.11,-17.57,5.13,-17.15,5.99,-17.20,6.29,-17.52,5.03,-17.50,4.60,-16.79,4.06,-15.39,3.53,-15.03,3.00,-14.67,3.40,-13.60,4.57,-13.34,-2.14,-1.19
2009-03-27 10:00,0.24,-2.44,2.23,-5.48,2.20,-8.74,1.37,-7.43,-0.05,-3.89,-2.32,-1.98,-2.76,-0.23,-3.80,1.12,-3.25,2.03,-3.60,1.81,-3.64,1.59,-4.58,-1.43,-6.17,-3.39,-5.92,-4.88,-5.36,-3.97,-4.83,-1.30,-3.25,0.35,-1.81,2.79,0.10,5.06,0.55,6.98,1.02,8.17,-0.48,9.28,-1.10,6.57
2009-03-27 11:00,-9.56,12.21,-9.00,7.36,-8.70,3.05,-9.02,2.74,-7.96,7.05,-7.67,10.18,-5.98,12.49,-4.03,13.62,-4.81,12.43,-5.62,11.66,-5.38,11.21,-5.92,12.61,-3.91,13.24,-1.02,14.03,0.10,12.81,1.26,12.44,1.19,13.99,-0.22,14.49,-0.50,16.08,-0.85,17.54,-0.79,19.02,-1.35,19.79,-2.59,16.06
2009-03-27 12:00,-2.86,15.24,-6.07,17.48,-9.07,18.02,-12.04,18.14,-11.79,19.69,-10.28,20.89,-9.04,20.96,-9.20,22.48,-10.97,24.45,-10.56,24.15,-10.62,25.70,-10.77,27.86,-9.35,31.02,-9.01,33.64,-8.41,36.76,-8.20,38.09,-7.31,38.26,-7.03,38.03,-6.65,36.47,-6.92,35.66,-6.97,34.49,-7.24,32.31,-6.10,25.96
2009-03-27 13:00,16.26,21.09,7.69,27.43,-0.37,29.11,-4.75,30.05,-8.73,30.06,-8.34,30.81,-5.50,33.79,-6.44,37.17,-6.77,41.57,-7.56,46.14,-5.33,47.04,-3.13,48.04,-2.42,50.15,-0.75,49.83,0.09,47.79,0.01,46.72,-1.61,46.21,-4.20,45.09,-5.98,42.75,-5.45,41.04,-5.15,40.08,-3.45,39.67,-2.80,37.57
2009-03-27 14:00,16.59,8.62,11.40,16.85,2.10,22.86,-6.24,23.40,-11.38,24.42,-13.46,24.40,-12.17,27.32,-13.07,31.54,-17.73,36.06,-19.98,38.60,-17.34,39.53,-13.52,39.05,-11.28,40.58,-9.80,41.88,-9.27,42.88,-8.57,43.31,-7.32,44.01,-6.74,43.15,-7.04,42.43,-5.98,40.03,-5.40,38.85,-4.30,38.36,-2.37,36.86
2009-03-27 15:00,6.54,2.88,2.78,9.56,2.37,12.57,-1.67,14.46,-8.26,19.11,-14.22,24.48,-18.26,26.68,-16.86,26.90,-14.69,28.00,-12.48,29.31,-11.93,29.90,-10.83,29.72,-9.35,29.35,-7.94,30.52,-7.10,31.20,-5.51,31.49,-3.37,29.64,-2.67,26.72,-2.18,25.50,-1.28,24.63,0.95,24.18,3.07,22.43,2.86,19.74
2009-03-27 16:00,2.46,-8.56,3.51,-6.55,2.74,-6.79,-0.03,-4.62,-4.39,-1.05,-8.09,3.77,-10.62,12.93,-11.06,19.70,-10.69,20.87,-11.60,19.43,-12.13,18.11,-12.12,15.71,-12.08,14.25,-10.51,13.90,-8.88,16.40,-6.48,19.45,-4.01,21.27,-2.90,21.09,-1.81,18.92,-0.03,16.23,3.17,13.03,3.83,9.89,4.34,8.26
2009-03-27 17:00,-0.89,-14.63,-1.00,-12.25,-2.09,-9.76,-0.84,-4.03,1.33,1.46,3.69,5.97,2.67,10.26,1.46,13.13,-0.05,13.29,-0.57,14.28,-1.15,12.42,-1.65,11.01,-1.30,9.23,-1.08,7.83,-1.49,6.13,-0.45,4.47,-0.83,2.67,-0.28,3.26,0.24,3.95,2.25,6.57,4.00,5.33,4.30,3.01,4.39,1.37
2009-03-27 18:00,-5.25,-31.90,-5.57,-22.47,-3.18,-15.34,-2.74,-7.35,-1.91,-5.31,-1.82,-4.23,-0.90,-3.84,1.63,-0.85,1.15,0.36,-0.39,-0.75,0.00,-3.04,0.73,-6.06,2.19,-9.06,3.04,-11.10,4.83,-13.16,6.32,-16.26,6.94,-18.26,6.82,-19.56,6.47,-20.09,5.94,-19.41,4.57,-17.01,2.85,-15.55,1.05,-13.81
2009-03-27 19:00,0.04,-28.37,2.48,-23.42,3.11,-18.72,2.42,-16.84,2.44,-18.93,2.07,-20.09,2.34,-20.95,2.29,-21.49,2.72,-20.83,3.21,-21.41,4.52,-20.90,6.51,-19.55,6.63,-21.29,6.54,-24.36,4.50,-26.56,3.76,-27.53,2.39,-27.85,2.90,-25.80,3.41,-24.07,2.25,-22.34,1.52,-20.68,0.66,-19.28,1.59,-18.88
2009-03-27 20:00,-3.65,-27.63,3.80,-22.28,3.55,-20.47,3.62,-25.06,4.01,-25.67,3.36,-25.24,2.91,-25.49,2.24,-26.01,1.81,-26.67,1.09,-26.37,0.52,-26.55,-0.25,-27.10,-0.48,-27.38,-0.14,-26.12,-1.01,-25.35,-1.56,-24.58,-1.66,-24.61,-1.35,-24.93,-0.31,-23.87,-0.47,-22.04,-0.94,-21.87,-0.59,-19.98,-0.57,-19.35
2009-03-27 21:00,-5.94,-21.96,0.62,-19.81,3.49,-17.24,2.85,-15.87,0.99,-15.61,0.38,-16.01,2.88,-17.64,4.73,-16.86,5.70,-17.29,6.04,-16.03,7.82,-15.68,7.80,-16.63,7.94,-17.74,7.39,-18.02,6.36,-19.07,5.19,-19.02,3.32,-17.40,2.23,-15.23,2.06,-14.34,3.29,-12.91,4.68,-12.68,6.49,-10.76,3.64,-7.66
2009-03-27 22:00,-3.15,-12.08,-1.86,-7.49,-0.93,-6.78,-1.70,-4.30,-2.64,-2.29,-3.50,-2.56,-2.74,-4.31,-1.98,-4.39,-1.62,-3.54,-2.47,-3.18,-3.04,-3.36,-2.39,-4.10,-2.27,-5.84,-2.79,-6.52,-3.44,-5.78,-3.98,-3.02,-3.50,-0.88,-3.20,1.20,-2.05,3.55,-0.54,4.44,1.52,6.55,2.19,8.12,4.15,6.84
2009-03-27 23:00,-9.60,7.28,-4.88,5.92,0.28,6.16,6.34,7.21,8.63,6.25,6.30,5.32,2.70,3.77,0.19,4.77,-1.65,4.62,-2.84,3.73,-2.21,3.40,-1.80,3.42,-1.22,3.91,-0.81,3.94,0.50,6.13,2.38,8.18,5.07,10.27,6.97,11.60,7.64,11.80,7.82,12.91,6.80,14.48,4.92,15.46,3.62,11.92
2009-03-28 00:00,-11.85,18.20,-7.97,17.84,-5.06,17.59,-1.92,17.94,-1.73,21.35,-1.11,25.42,-1.37,29.63,-3.01,31.85,-3.45,31.60,-3.90,30.00,-5.07,30.05,-6.39,28.59,-6.02,28.08,-6.60,29.26,-5.77,31.30,-4.44,33.08,-1.78,33.28,-2.37,31.83,-1.35,30.90,0.14,30.84,0.73,30.60,1.73,29.76,0.62,24.91
2009-03-28 01:00,-0.73,38.00,-7.33,35.32,-9.75,33.31,-9.85,32.65,-9.15,31.72,-9.89,35.78,-10.33,39.20,-12.81,43.14,-14.05,45.79,-16.62,48.97,-18.35,52.52,-17.29,53.48,-15.39,53.13,-13.19,52.77,-12.16,51.83,-10.88,49.71,-9.40,47.35,-7.99,45.48,-7.25,42.78,-6.88,42.27,-5.81,42.18,-5.74,42.31,-5.80,39.15
2009-03-28 02:00,15.01,13.68,10.73,18.01,4.34,18.01,1.32,17.27,-1.22,18.37,-3.19,24.35,-7.43,30.57,-10.14,35.91,-9.53,36.31,-8.83,36.42,-7.33,38.67,-7.41,39.59,-7.23,40.38,-7.16,41.13,-6.22,43.52,-6.73,44.83,-6.05,45.98,-5.07,45.87,-5.07,44.19,-6.04,43.26,-5.45,41.04,-3.83,39.87,-2.28,39.93
2009-03-28 03:00,1.79,13.75,0.63,14.44,-3.00,16.03,-8.31,16.26,-15.47,17.39,-23.69,20.59,-23.87,25.87,-20.86,29.32,-18.81,29.44,-16.26,28.66,-13.64,28.33,-11.83,30.25,-9.07,30.48,-6.45,30.46,-4.79,31.19,-3.53,31.16,-3.37,31.00,-3.80,30.34,-3.45,30.24,-3.05,29.63,-2.19,28.22,-2.03,26.70,-0.32,25.56
2009-03-28 04:00,0.08,-2.28,-2.18,1.62,-4.71,3.35,-10.73,9.23,-15.10,15.20,-12.64,15.02,-8.70,14.15,-5.92,17.32,-6.61,20.88,-6.59,21.83,-6.77,22.08,-7.09,23.77,-6.33,23.69,-5.60,24.02,-5.51,23.42,-5.31,22.44,-4.94,20.56,-3.64,20.76,-1.21,20.36,1.08,19.40,1.17,17.44,2.09,16.15,1.85,15.24
2009-03-28 05:00,1.37,-12.14,2.51,-12.42,1.94,-10.60,1.13,-6.98,-1.30,-3.23,-3.73,1.56,-6.77,4.59,-7.19,9.28,-7.21,11.05,-6.95,11.56,-7.52,11.38,-7.49,11.60,-9.74,11.42,-10.16,10.77,-9.81,10.98,-8.81,10.14,-8.23,10.95,-7.88,10.85,-7.30,9.67,-5.58,7.16,-2.38,4.60,0.26,3.54,1.94,3.54
2009-03-28 06:00,-5.72,-22.00,-2.21,-14.09,-2.38,-10.17,-2.63,-8.04,0.16,-7.91,1.82,-8.86,0.15,-6.55,-2.44,-5.27,-1.43,-3.48,-2.60,-3.43,-2.55,-4.25,-1.97,-3.76,-0.25,-3.22,0.58,-4.22,2.05,-6.90,2.78,-7.93,3.91,-8.84,4.69,-9.33,4.37,-9.32,4.60,-10.40,3.88,-11.78,2.58,-13.34,1.60,-15.21
2009-03-28 07:00,-2.90,-34.73,0.08,-24.80,0.94,-18.14,-1.61,-14.01,-0.56,-14.00,0.54,-17.22,1.68,-19.17,1.81,-18.60,1.72,-18.32,1.98,-18.45,2.02,-19.59,2.28,-20.45,2.87,-21.31,2.52,-24.56,2.44,-26.68,1.20,-29.06,2.08,-29.20,1.86,-28.85,1.56,-26.54,0.01,-23.56,-0.85,-22.16,-2.12,-22.45,-1.65,-20.94
2009-03-28 08:00,0.66,-32.05,5.56,-27.28,7.02,-27.25,6.06,-24.82,4.31,-26.62,2.76,-29.72,1.77,-30.56,0.88,-30.41,2.74,-29.31,3.02,-29.54,4.27,-28.52,5.14,-27.94,4.73,-27.96,1.93,-27.05,-0.65,-26.49,-0.90,-26.36,-0.20,-26.25,-0.41,-25.58,-0.25,-26.78,1.50,-26.35,2.99,-26.41,2.74,-22.92,4.31,-20.55
2009-03-28 09:00,-1.08,-30.50,2.52,-24.25,3.60,-20.98,3.92,-20.98,3.59,-21.61,2.68,-21.37,2.48,-21.75,0.66,-22.63,0.39,-23.44,0.01,-23.25,-1.41,-23.06,-1.78,-22.86,-1.63,-23.03,-0.10,-24.23,1.28,-24.63,1.86,-24.14,1.35,-22.83,0.34,-21.26,1.31,-20.33,1.82,-19.96,2.79,-18.72,2.54,-16.91,3.82,-14.94
2009-03-28 10:00,9.80,-21.04,6.05,-15.40,7.91,-12.62,9.73,-8.70,7.85,-7.71,3.89,-8.11,4.33,-8.18,4.36,-6.60,3.39,-5.86,0.85,-6.75,-1.00,-7.22,-1.34,-8.48,-0.21,-8.76,0.57,-9.56,-0.30,-8.79,-1.58,-7.72,-3.00,-7.53,-5.05,-5.97,-5.30,-4.16,-3.34,-2.72,-1.55,-1.74,0.31,-1.68,-1.23,1.92
2009-03-28 11:00,-7.75,-4.72,-8.79,1.98,-5.53,4.98,-2.29,5.68,0.72,7.77,1.61,7.62,-0.24,6.84,-0.77,4.47,-2.86,4.14,-4.92,5.38,-5.37,5.14,-6.11,6.16,-6.73,6.49,-6.89,6.65,-6.78,7.31,-4.29,6.73,-2.98,7.56,-3.80,9.18,-4.40,11.09,-2.92,12.08,-1.81,12.21,-0.14,12.21,1.02,8.17
2009-03-28 12:00,-11.57,14.62,-11.00,14.80,-7.51,10.65,-2.96,10.18,0.55,12.01,1.33,15.91,1.55,17.56,0.11,18.47,-3.05,18.53,-4.71,17.81,-5.97,16.15,-5.27,16.58,-4.43,17.26,-2.49,17.76,-1.45,19.45,0.15,20.37,1.40,21.07,1.76,21.92,0.70,22.63,-0.38,24.08,-0.83,25.19,-0.97,26.30,-1.27,18.88
2009-03-28 13:00,-1.96,25.78,-1.61,24.01,0.06,24.01,2.22,24.47,1.78,26.22,-2.77,30.77,-6.34,34.16,-7.32,36.27,-7.74,37.29,-8.05,37.29,-6.95,38.79,-6.41,40.42,-6.19,42.06,-5.13,42.71,-4.06,42.31,-3.58,42.77,-3.09,43.55,-4.00,43.79,-4.68,43.27,-4.83,43.43,-4.54,43.83,-4.33,43.16,-2.50,39.97
2009-03-28 14:00,3.03,26.60,-1.74,27.11,-6.41,25.97,-7.58,26.02,-5.47,26.99,-6.23,31.78,-8.60,37.02,-12.09,42.84,-14.77,44.73,-11.83,46.06,-9.64,48.43,-8.38,49.76,-7.83,52.03,-7.73,52.06,-7.35,50.50,-7.44,49.11,-7.38,47.56,-7.74,45.03,-7.62,43.29,-7.03,41.07,-7.46,38.74,-7.79,36.43,-7.41,32.88
2009-03-28 15:00,-3.40,7.22,-0.81,10.01,-2.19,15.76,-4.71,19.48,-5.44,20.82,-8.15,21.45,-10.50,22.60,-12.37,28.62,-12.47,33.30,-11.27,34.51,-10.23,35.88,-10.69,38.36,-9.93,38.59,-8.82,40.09,-8.16,41.34,-8.95,43.19,-8.13,42.92,-7.41,41.26,-7.38,40.85,-7.39,40.54,-8.02,40.55,-8.21,40.81,-7.81,40.20
2009-03-28 16:00,-3.75,0.93,-5.81,1.85,-7.66,6.10,-10.53,11.28,-16.14,13.83,-16.93,17.35,-17.58,18.09,-17.04,16.37,-15.48,15.39,-11.74,15.51,-8.41,16.23,-7.12,19.15,-7.45,21.56,-8.01,23.69,-7.82,25.11,-7.68,25.68,-6.51,25.94,-5.17,24.99,-2.64,24.63,-0.97,22.63,-0.08,20.09,0.09,17.52,0.51,16.18
2009-03-28 17:00,1.92,-11.87,1.27,-10.81,0.13,-6.14,-4.55,0.47,-6.73,6.49,-7.53,14.10,-5.92,14.29,-4.49,13.06,-5.77,12.13,-5.37,11.52,-6.70,11.42,-7.21,9.69,-8.52,10.54,-9.82,10.35,-9.85,10.44,-9.49,10.97,-7.31,11.03,-5.62,9.98,-5.52,8.97,-4.82,9.08,-4.08,11.40,-1.88,12.09,1.02,11.52
2009-03-28 18:00,-0.88,-17.35,0.72,-16.11,1.12,-13.69,0.75,-8.46,0.95,-3.37,2.90,1.11,1.69,2.31,-0.00,3.04,-0.51,2.98,-1.16,2.05,-2.99,-0.83,-4.29,-2.38,-4.17,-2.76,-4.46,-1.49,-5.56,-2.67,-4.72,-6.71,-3.76,-6.09,-0.25,-4.58,2.35,-4.19,5.65,-4.00,8.58,-4.35,10.63,-4.86,7.28,-4.54
2009-03-28 19:00,-4.02,-27.12,-2.17,-19.95,-3.60,-12.64,-4.36,-9.21,-2.16,-10.20,-1.53,-11.58,-1.71,-14.36,-2.34,-17.38,-2.14,-18.68,-0.57,-19.35,1.95,-18.35,4.89,-16.39,6.37,-16.76,7.16,-18.61,5.96,-18.46,6.02,-20.01,5.58,-21.62,4.91,-21.83,3.16,-20.91,0.88,-19.63,-1.77,-19.20,-2.18,-19.22,-1.55,-18.92
2009-03-28 20:00,2.75,-35.07,5.00,-28.82,5.85,-24.15,5.09,-22.40,5.13,-22.18,4.01,-24.31,2.40,-27.22,1.17,-30.32,0.51,-31.58,0.67,-30.06,1.15,-29.91,2.43,-30.66,4.11,-30.67,5.20,-29.49,5.16,-28.66,5.38,-28.70,5.89,-30.01,6.04,-30.48,5.19,-28.44,1.21,-26.75,0.63,-25.57,-0.21,-21.85,2.15,-17.66
2009-03-28 21:00,4.51,-27.61,7.77,-21.25,6.09,-21.25,3.94,-21.40,2.63,-23.58,2.11,-24.59,3.11,-23.44,4.01,-22.63,4.27,-22.45,4.92,-21.51,5.56,-21.21,6.34,-21.70,8.34,-23.06,9.09,-23.46,9.40,-23.78,8.05,-24.83,6.07,-25.55,4.31,-24.95,3.61,-22.34,3.54,-20.79,3.52,-20.06,3.74,-17.38,1.08,-7.52
2009-03-28 22:00,-6.13,-18.67,-3.01,-16.23,1.63,-15.31,1.53,-12.30,0.08,-11.70,-0.95,-13.08,-1.57,-15.15,-1.26,-15.47,-0.85,-15.77,-0.92,-15.89,-0.70,-16.24,-0.49,-16.91,0.01,-18.53,0.31,-19.49,0.94,-19.50,0.71,-18.42,-1.34,-16.55,-1.88,-14.83,-1.93,-12.96,-2.49,-10.51,-1.16,-9.05,-0.34,-7.33,,
2009-03-28 23:00,1.51,-1.83,6.12,2.54,10.55,5.48,9.46,7.97,3.32,6.48,-1.77,3.32,-3.80,2.80,-5.44,1.66,-6.59,-0.69,-7.87,-2.66,-6.74,-3.57,-6.70,-4.39,-6.57,-4.14,-6.14,-3.48,-5.31,-1.44,-6.30,1.07,-5.83,0.91,-4.62,0.03,-3.80,1.12,-2.01,4.09,-1.42,6.58,-1.32,8.60,,
2009-03-29 00:00,-9.99,13.23,-3.46,10.44,1.26,9.40,7.14,10.71,6.81,11.44,4.60,12.12,2.00,13.09,-0.60,12.70,-2.71,13.08,-4.90,13.03,-6.29,13.12,-5.84,11.69,-5.36,12.16,-4.95,12.18,-4.25,12.29,-4.05,12.67,-3.92,14.28,-3.53,16.71,-1.51,19.32,-2.25,20.35,-2.52,19.85,-2.68,19.38,-1.73,14.96
2009-03-29 01:00,-2.00,18.86,-4.19,20.17,-1.61,19.29,1.87,20.90,3.02,21.57,1.66,22.93,-2.59,25.48,-8.04,28.50,-9.77,29.01,-9.91,28.12,-9.48,27.74,-9.42,29.22,-9.13,30.99,-8.41,32.05,-6.63,32.39,-5.93,34.50,-5.53,35.57,-6.69,35.94,-7.29,35.85,-6.85,34.42,-5.77,34.65,-4.95,34.38,-3.72,32.78
2009-03-29 02:00,-1.20,20.99,-6.50,29.61,-7.24,28.96,-6.33,28.72,-5.83,28.45,-7.26,29.69,-8.02,32.80,-9.59,36.18,-11.02,39.41,-11.48,42.93,-10.87,43.64,-10.14,43.66,-7.79,42.82,-5.77,41.04,-6.49,39.66,-5.83,39.56,-6.30,39.72,-7.63,36.27,-8.24,32.84,-7.24,33.67,-4.79,36.22,-2.66,36.77,-3.36,31.63
2009-03-29 03:00,-2.93,19.83,-6.39,19.17,-4.20,24.25,-2.81,30.55,-6.51,34.00,-7.46,37.06,-7.71,38.55,-8.46,37.58,-8.20,37.77,-8.56,38.92,-7.14,40.41,-6.53,42.48,-5.41,43.25,-5.29,44.54,-4.84,44.79,-3.19,44.88,-3.42,44.29,-2.80,42.28,-3.49,39.45,-4.13,38.83,-5.05,37.39,-4.49,38.30,-3.57,36.70
2009-03-29 04:00,-0.75,6.78,-8.15,11.71,-15.33,14.92,-19.12,19.70,-20.25,25.01,-20.38,31.46,-18.31,33.89,-18.05,32.40,-17.36,30.52,-14.36,28.94,-10.03,28.51,-8.85,29.08,-8.25,30.84,-6.69,31.22,-5.74,31.20,-5.41,31.83,-4.53,31.37,-3.68,29.65,-3.01,28.49,-2.74,26.27,-1.52,25.40,-1.71,23.98,-3.53,23.10
2009-03-29 05:00,5.53,-6.66,0.50,-3.30,-3.19,3.19,-3.96,11.02,-8.14,17.05,-10.79,19.16,-10.97,21.09,-10.00,23.70,-7.91,25.40,-4.33,24.00,-2.28,22.12,-2.04,21.67,-2.00,20.22,-3.67,17.50,-4.80,16.10,-4.13,15.26,-3.97,15.10,-4.18,14.09,-3.70,14.56,-1.99,14.46,-0.08,13.70,2.46,12.60,4.13,12.29
2009-03-29 06:00,-0.36,-14.99,-2.41,-10.07,-4.22,-3.62,-5.24,0.67,-7.58,3.82,-10.29,2.45,-9.95,2.03,-8.88,5.30,-8.02,7.24,-8.47,9.72,-7.61,10.30,-6.34,7.24,-5.90,3.82,-5.71,2.52,-6.57,0.57,-5.36,-0.94,-5.27,-0.91,-6.10,-1.27,-4.08,-1.69,-3.71,-2.20,-2.42,-0.96,0.82,0.05,2.85,1.62
2009-03-29 07:00,-3.55,-24.57,-1.13,-15.54,-0.93,-11.81,-2.98,-8.26,-5.08,-5.56,-4.75,-6.61,-4.20,-9.37,-2.58,-8.87,-1.68,-6.70,-0.19,-4.77,0.27,-6.93,0.66,-9.85,1.18,-12.52,1.50,-13.57,3.18,-13.57,3.95,-14.37,4.32,-15.20,3.85,-16.40,3.55,-15.44,4.56,-17.33,3.46,-17.15,2.59,-16.06,0.74,-15.48
2009-03-29 08:00,3.37,-29.64,5.66,-23.90,4.45,-21.34,4.31,-23.59,4.61,-24.54,6.35,-24.10,5.76,-25.54,4.08,-28.58,3.11,-29.82,2.56,-30.41,3.11,-29.82,4.98,-29.77,6.11,-31.40,7.87,-34.00,7.76,-34.34,6.43,-33.08,4.42,-30.67,2.78,-29.09,1.29,-27.67,0.57,-27.05,0.02,-26.28,0.55,-24.97,1.40,-25.01
2009-03-29 09:00,3.06,-33.71,6.03,-29.44,9.13,-27.63,6.37,-27.86,3.18,-29.70,1.72,-31.09,1.95,-31.13,3.01,-29.85,4.09,-29.62,5.46,-29.30,6.22,-29.06,7.08,-29.11,6.65,-28.09,4.98,-27.77,3.96,-28.20,3.67,-27.24,2.24,-26.01,-0.40,-23.59,-1.14,-22.24,-0.41,-22.23,0.18,-23.09,1.02,-20.42,1.75,-18.41
2009-03-29 10:00,-8.53,-20.36,2.48,-18.71,5.53,-19.43,3.94,-18.36,1.35,-19.79,-0.99,-19.69,-0.50,-20.58,-0.25,-20.71,1.22,-19.73,2.25,-20.67,5.03,-22.52,7.50,-22.38,8.04,-22.11,7.45,-21.24,6.04,-21.06,4.41,-18.53,1.65,-17.40,-0.00,-16.13,-0.91,-13.90,-0.34,-12.36,0.05,-10.25,0.37,-9.94,2.21,-6.75